Flag for United Kingdom Weather past 2 weeks in Nottingham, England, United Kingdom

Now
37 °F

Sunny.


Feels Like: 31 °F
Forecast: 35 / 41 °F
Wind: 9 mph from Southwest

Location: East Midlands

Current Time: Dec 26, 2014 at 11:40:39 AM

Latest Report: Dec 26, 2014 at 11:20 AM


Visibility: 10 mi

Pressure: 30.30 "Hg

Humidity: 93%

Dew point: 36 °F

Location of NottinghamLocation

Historic Weather in Nottingham — Graph

°F

Nottingham temperature yesterday

Maximum temperature yesterday: 43 °F (at 11:50 AM)
Minimum temperature yesterday: 34 °F (at 11:50 PM)
Average temperature yesterday: 39 °F

Past Weeks' High & Low Weather Summary

 TemperatureHumidityPressure
High57 °F (Dec 18, 1:20 PM)100% (Dec 12, 3:20 AM)30.48 "Hg (Dec 12, 3:20 AM)
Low30 °F (Dec 13, 6:50 AM)61% (Dec 24, 12:20 PM)29.12 "Hg (Dec 12, 3:50 AM)
Average45 °F85%29.87 "Hg
* Reported Dec 11 10:20 AM — Dec 26 10:20 AM, Nottingham, Weather by CustomWeather, © 2014

Note: Actual official high and low records may vary slightly from our data, if they occured in-between our weather recording intervals... More about our weather records

Advertising

Nottingham weather history for previous 24 hours

 ConditionsComfort  
Time TempWeatherWind HumidityBarometerVisibility
10:20 AM
Dec 26
36 °FSunny.9 mph93%30.33 "Hg10 mi
9:50 AM36 °FSunny.9 mph93%30.36 "Hg10 mi
9:20 AM36 °FSunny.9 mph93%30.36 "Hg10 mi
8:50 AM36 °FSunny.9 mph93%30.36 "Hg10 mi
8:20 AM36 °FSunny.8 mph93%30.36 "Hg10 mi
7:50 AM36 °FClear.5 mph93%30.36 "Hg10 mi
7:20 AM36 °FPassing clouds.6 mph93%30.39 "HgN/A
6:50 AM36 °FPassing clouds.7 mph93%30.39 "HgN/A
6:20 AM36 °FPassing clouds.7 mph93%30.39 "HgN/A
5:50 AM36 °FPassing clouds.7 mph93%30.39 "HgN/A
5:20 AM36 °FOvercast.8 mph93%30.42 "HgN/A
4:20 AM36 °FPassing clouds.6 mph93%30.42 "HgN/A
3:20 AM36 °FPassing clouds.6 mph93%30.45 "HgN/A
2:20 AM36 °FPassing clouds.8 mph100%30.45 "HgN/A
1:20 AM34 °FPassing clouds.8 mph100%30.45 "HgN/A
12:20 AM34 °FPassing clouds.12 mph100%30.45 "HgN/A
11:50 PM
Dec 25
34 °FPassing clouds.10 mph100%30.45 "HgN/A
11:20 PM36 °FPassing clouds.10 mph93%30.48 "HgN/A
10:50 PM36 °FPassing clouds.9 mph100%30.45 "HgN/A
10:20 PM37 °FPassing clouds.9 mph100%30.45 "HgN/A
9:50 PM39 °FPassing clouds.8 mph93%30.45 "HgN/A
9:20 PM37 °FPassing clouds.8 mph100%30.45 "HgN/A
8:20 PM36 °FPassing clouds.10 mph100%30.45 "HgN/A
7:50 PM37 °FPassing clouds.13 mph93%30.45 "HgN/A
7:20 PM39 °FPassing clouds.12 mph93%30.45 "HgN/A
6:50 PM39 °FPassing clouds.12 mph87%30.42 "HgN/A
6:20 PM39 °FPassing clouds.10 mph93%30.42 "HgN/A
5:50 PM39 °FPassing clouds.13 mph93%30.42 "HgN/A
5:20 PM39 °FPassing clouds.10 mph87%30.42 "HgN/A
4:50 PM37 °FPassing clouds.10 mph87%30.42 "HgN/A
4:20 PM39 °FPassing clouds.14 mph87%30.39 "HgN/A
3:20 PM39 °FPassing clouds.12 mph87%30.39 "HgN/A
2:50 PM41 °FScattered clouds.9 mph87%30.39 "HgN/A
2:20 PM41 °FPassing clouds.14 mph87%30.39 "HgN/A
1:50 PM41 °FPassing clouds.12 mph81%30.36 "HgN/A
1:20 PM43 °FPassing clouds.13 mph81%30.36 "HgN/A
12:50 PM43 °FPassing clouds.13 mph81%30.36 "HgN/A
12:20 PM43 °FPassing clouds.15 mph81%30.36 "HgN/A
11:50 AM43 °FPassing clouds.14 mph81%30.36 "HgN/A
11:20 AM41 °FPassing clouds.14 mph81%30.33 "HgN/A
Weather by CustomWeather, © 2014

See weather overviewHow to use our weather pages